[[{"header":{"parameterUnit":"m.s-1","parameterCategory":2,"la1":30.2991,"la2":30.254,"lo1":-89.0895,"lo2":-89.0444,"dy":0.0017,"dx":0.0017,"nx":28,"ny":28,"refTime":"2024-04-09T03:00:00:Z","depth":"0","parameterNumber":2,"parameterNumberName":"U-component_of_CURRENTS"},"data":[0,0,0,0,0,0,0,0,0,0,0,0,0,0,0,0,0,0,0,0,0,0,0,0,0,0,0,0,0,0,0,0,0,0,0,0,0,0,0,0,0,0,0,0,0,0,0,0,0,0,0,0,0,0,0,0,0,0,-0.1919,-0.1919,0,-0.1936,-0.1936,-0.1936,-0.1921,-0.192,-0.192,-0.192,-0.1864,-0.1863,-0.1862,0,0,0,0,0,0,0,0,0,0,0,0,0,-0.1839,-0.184,-0.1919,-0.1919,-0.192,-0.1936,-0.1936,-0.1936,-0.1921,-0.192,-0.192,-0.1919,-0.1864,-0.1863,-0.1862,0,0,0,0,0,0,0,0,0,0,0,0,0,-0.1864,-0.1841,-0.1919,-0.1916,-0.1917,-0.1936,-0.1936,-0.1936,-0.1921,-0.192,-0.192,-0.1919,-0.1865,-0.1863,-0.1861,-0.1861,0,0,-0.1856,-0.1855,0,0,0,0,0,0,0,0,-0.1862,-0.1866,-0.1916,-0.1917,-0.1917,-0.1928,-0.1887,-0.1908,-0.1921,-0.1916,-0.192,-0.1919,-0.1881,-0.1878,-0.1879,-0.1858,-0.1856,-0.1856,-0.1855,-0.1854,-0.1854,0,0,0,0,0,0,0,-0.1861,-0.1865,-0.1922,-0.1917,-0.1917,-0.1903,-0.1906,-0.1891,-0.1897,-0.1916,-0.1916,-0.1923,-0.188,-0.1881,-0.1877,-0.1855,-0.1856,-0.1854,-0.1853,-0.1853,-0.182,-0.182,0,0,0,0,0,0,-0.1868,-0.1864,-0.1922,-0.1923,-0.1891,-0.1905,-0.1908,-0.1923,-0.1899,-0.1897,-0.1923,-0.1922,-0.1884,-0.1879,-0.1875,-0.1878,-0.1854,-0.1852,-0.1851,-0.182,-0.182,-0.182,0,0,0,0,0,0,-0.1866,-0.1873,-0.1921,-0.1896,-0.1901,-0.1908,-0.1923,-0.1923,-0.1923,-0.1906,-0.1901,-0.1924,-0.1883,-0.1878,-0.1863,-0.1876,-0.1852,-0.185,-0.182,-0.182,-0.182,-0.1881,0,0,0,0,0,0,-0.1864,-0.1872,-0.1878,-0.1897,-0.1903,-0.1933,-0.1924,-0.1924,-0.193,-0.1928,-0.1904,-0.1899,-0.1883,-0.1866,-0.1861,-0.1873,-0.1849,-0.1819,-0.182,-0.182,-0.1878,-0.1883,-0.1887,0,0,0,0,0,-0.1861,-0.1875,-0.1879,-0.1885,-0.1914,-0.1934,-0.1935,-0.1935,-0.193,-0.1932,-0.1916,-0.19,-0.1864,-0.1865,-0.1859,-0.1871,-0.1819,-0.182,-0.182,-0.1877,-0.1882,-0.1887,0,0,0,0,0,0,-0.184,-0.1876,-0.188,-0.1903,-0.1917,-0.1932,-0.1936,-0.1938,-0.1929,-0.1922,-0.1903,-0.1896,-0.1887,-0.1868,-0.1869,-0.1861,-0.1839,-0.1838,-0.1884,-0.1888,-0.1893,-0.19,-0.1847,0,0,0,0,0,-0.1841,-0.1859,-0.1888,-0.1902,-0.1913,-0.1924,-0.193,-0.1933,-0.1933,-0.1929,-0.1915,-0.1897,-0.1886,-0.1878,-0.1861,-0.1858,-0.1866,-0.1861,-0.1865,-0.1869,-0.1871,-0.1891,-0.1898,-0.1822,-0.1822,-0.1822,0,0,-0.1836,-0.1857,-0.1867,-0.1899,-0.1909,-0.193,-0.1926,-0.1939,-0.1953,-0.1923,-0.1926,-0.1909,-0.1887,-0.1885,-0.1879,-0.1871,-0.19,-0.1869,-0.1873,-0.1872,-0.1892,-0.19,-0.1906,-0.1822,-0.1822,-0.1822,0,0,-0.1837,-0.1856,-0.1873,-0.1892,-0.1915,-0.1927,-0.1933,-0.1951,-0.1955,-0.1958,-0.1943,-0.1935,-0.1914,-0.191,-0.1903,-0.1918,-0.1919,-0.191,-0.1942,-0.1962,-0.1969,-0.1975,-0.2024,-0.2034,-0.1915,-0.1915,-0.1915,0,-0.1826,-0.1859,-0.1878,-0.1901,-0.1923,-0.193,-0.1955,-0.1962,-0.197,-0.1982,-0.1962,-0.1951,-0.1929,-0.1942,-0.1944,-0.193,-0.195,-0.1928,-0.197,-0.1976,-0.1981,-0.2029,-0.204,-0.1918,-0.1918,-0.1918,-0.1917,0,-0.1844,-0.187,-0.1882,-0.1919,-0.1942,-0.1962,-0.1989,-0.2003,-0.2006,-0.2015,-0.2024,-0.1997,-0.1992,-0.1986,-0.1967,-0.1995,-0.2002,-0.1974,-0.1963,-0.1993,-0.2042,-0.2051,-0.1922,-0.1921,-0.1921,-0.192,0,0,-0.1818,-0.1884,-0.1885,-0.1917,-0.1958,-0.1982,-0.2013,-0.2052,-0.208,-0.2071,-0.2106,-0.2078,-0.2064,-0.2054,-0.2034,-0.2047,-0.2105,-0.2028,-0.2028,-0.2088,-0.2179,-0.2175,-0.2185,-0.2088,-0.2089,-0.209,-0.221,0,-0.1824,-0.1877,-0.1909,-0.1959,-0.1995,-0.2028,-0.2063,-0.2097,-0.2114,-0.2145,-0.2132,-0.2137,-0.2091,-0.2087,-0.2096,-0.2097,-0.2128,-0.2077,-0.213,-0.2132,-0.2134,-0.2194,-0.2114,-0.2212,-0.2219,-0.2221,-0.2222,0,-0.1826,-0.1871,-0.1922,-0.2006,-0.2025,-0.2051,-0.2124,-0.2153,-0.2198,-0.2211,-0.2218,-0.2206,-0.2219,-0.2169,-0.2204,-0.2175,-0.2183,-0.2185,-0.2189,-0.2167,-0.2145,-0.2175,-0.2229,-0.2194,-0.2236,-0.2235,-0.2234,0,-0.1804,-0.1879,-0.1925,-0.195,-0.2037,-0.207,-0.2111,-0.2167,-0.2202,-0.2244,-0.2271,-0.2281,-0.2289,-0.2291,-0.2282,-0.225,-0.2334,-0.2292,-0.2306,-0.2307,-0.2238,-0.223,-0.2268,-0.2328,-0.2328,-0.2328,-0.2327,0,-0.18,-0.1836,-0.1918,-0.1943,-0.2003,-0.2068,-0.2124,-0.2166,-0.223,-0.228,-0.229,-0.2328,-0.2316,-0.2353,-0.2335,-0.2363,-0.2379,-0.2333,-0.2338,-0.2259,-0.2252,-0.2215,-0.2213,-0.2332,-0.2331,-0.233,-0.233,0,-0.1756,-0.1811,-0.1868,-0.1962,-0.1989,-0.2027,-0.2119,-0.2164,-0.2226,-0.2295,-0.2308,-0.2378,-0.2432,-0.2439,-0.2468,-0.2439,-0.2423,-0.2459,-0.2383,-0.2377,-0.2335,-0.2339,-0.238,-0.2322,-0.2502,-0.2503,-0.2503,0,-0.1737,-0.1758,-0.1854,-0.1889,-0.1926,-0.1993,-0.2043,-0.2134,-0.2184,-0.2323,-0.2357,-0.2446,-0.2502,-0.2566,-0.2536,-0.2546,-0.2477,-0.2466,-0.2375,-0.2345,-0.2354,-0.2324,-0.2268,-0.2326,-0.2325,-0.2325,-0.2324,0,-0.1692,-0.1718,-0.1766,-0.1833,-0.1891,-0.1956,-0.2034,-0.2079,-0.2201,-0.2276,-0.2396,-0.2462,-0.2559,-0.2545,-0.2558,-0.2528,-0.2399,-0.2451,-0.2427,-0.2235,-0.2198,-0.2139,-0.2262,-0.2317,-0.2317,-0.2318,-0.2318,-0.2319,-0.164,-0.1657,-0.1714,-0.1769,-0.1834,-0.1895,-0.1906,-0.2021,-0.21,-0.2203,-0.2351,-0.2432,-0.2491,-0.2505,-0.2492,-0.2399,-0.2397,-0.2295,-0.2315,-0.2297,-0.2195,-0.2324,-0.237,-0.2371,-0.2372,-0.2373,-0.2373,0,-0.1579,-0.1603,-0.1651,-0.1711,-0.1735,-0.1798,-0.1877,-0.1875,-0.1937,-0.2104,-0.2203,-0.2331,-0.2338,-0.2371,-0.234,-0.2264,-0.2177,-0.2193,-0.211,-0.2065,-0.2184,-0.2125,-0.211,-0.211,-0.211,-0.2111,-0.2111,-0.2111,-0.155,-0.1561,-0.1586,-0.1589,-0.1617,-0.1595,-0.1607,-0.1639,-0.1715,-0.183,-0.1948,-0.2115,-0.2149,-0.2354,-0.227,-0.2175,-0.2087,-0.2039,-0.2042,-0.2104,-0.2113,-0.2121,-0.2064,-0.2036,-0.2036,-0.1829,-0.1828,-0.1827]},{"header":{"parameterUnit":"m.s-1","parameterCategory":2,"la1":30.2991,"la2":30.254,"lo1":-89.0895,"lo2":-89.0444,"dy":0.0017,"dx":0.0017,"nx":28,"ny":28,"refTime":"2024-04-09T03:00:00:Z","depth":"0","parameterNumber":3,"parameterNumberName":"V-component_of_CURRENTS"},"data":[0,0,0,0,0,0,0,0,0,0,0,0,0,0,0,0,0,0,0,0,0,0,0,0,0,0,0,0,0,0,0,0,0,0,0,0,0,0,0,0,0,0,0,0,0,0,0,0,0,0,0,0,0,0,0,0,0,0,-0.0096,-0.0096,0,-0.0018,-0.0017,-0.0016,0.0037,0.0037,0.0037,0.0037,0.0128,0.013,0.0133,0,0,0,0,0,0,0,0,0,0,0,0,0,-0.0142,-0.0141,-0.0096,-0.0096,-0.0095,-0.0018,-0.0017,-0.0015,0.0037,0.0037,0.0037,0.0037,0.0127,0.013,0.0133,0,0,0,0,0,0,0,0,0,0,0,0,0,-0.0095,-0.0141,-0.0096,-0.0062,-0.0059,-0.0019,-0.0017,-0.0015,0.0037,0.0037,0.0037,0.0037,0.0126,0.013,0.0133,0.0154,0,0,0.0144,0.0146,0,0,0,0,0,0,0,0,-0.0098,-0.0093,-0.0068,-0.0064,-0.006,-0.0003,0.0,0.0041,0.0037,0.0004,0.0037,0.0037,0.0083,0.009,0.0109,0.0158,0.0162,0.0144,0.0147,0.0148,0.0149,0,0,0,0,0,0,0,-0.0101,-0.0096,-0.0062,-0.0067,-0.0063,-0.0031,-0.0024,0.0009,0.0045,0.0007,0.001,0.0014,0.0086,0.0106,0.0112,0.0163,0.0144,0.0147,0.015,0.0151,0.025,0.025,0,0,0,0,0,0,-0.0121,-0.01,-0.0064,-0.006,-0.0083,-0.0031,-0.0023,-0.0019,0.0045,0.0053,0.0013,0.0016,0.01,0.0108,0.0115,0.0149,0.0148,0.0151,0.0153,0.0249,0.025,0.025,0,0,0,0,0,0,-0.0123,-0.0119,-0.0068,-0.0081,-0.0072,-0.0031,-0.0026,-0.0017,0.0005,0.0049,0.0058,0.0026,0.01,0.011,0.0148,0.0153,0.0153,0.0156,0.0249,0.0249,0.025,0.0213,0,0,0,0,0,0,-0.0124,-0.012,-0.0123,-0.0082,-0.0073,-0.0048,-0.0026,-0.0016,0.0005,0.0009,0.0063,0.0071,0.0101,0.0143,0.0152,0.0158,0.0159,0.0248,0.0249,0.025,0.0213,0.0212,0.0211,0,0,0,0,0,-0.0126,-0.0133,-0.0124,-0.012,-0.0079,-0.0048,-0.0039,-0.0007,0.0005,0.0014,0.0053,0.007,0.0155,0.0146,0.0157,0.0163,0.0247,0.0249,0.025,0.0214,0.0212,0.0211,0,0,0,0,0,0,-0.0155,-0.0128,-0.0117,-0.0115,-0.0087,-0.0041,-0.0034,-0.0009,0.003,0.0031,0.0078,0.0089,0.0123,0.015,0.0139,0.0195,0.0204,0.0207,0.0173,0.0172,0.0171,0.0163,0.0162,0,0,0,0,0,-0.0166,-0.0164,-0.0128,-0.0129,-0.0117,-0.0075,-0.0059,-0.0037,0.0001,0.0018,0.0057,0.0098,0.0136,0.0158,0.0193,0.0225,0.0259,0.0237,0.0235,0.0234,0.0236,0.0294,0.0298,0.0254,0.0254,0.0254,0,0,-0.0179,-0.0164,-0.0164,-0.0135,-0.0111,-0.0097,-0.0064,-0.0045,-0.0027,0.0021,0.0056,0.0094,0.0143,0.0179,0.0197,0.0202,0.0264,0.0236,0.0234,0.0237,0.0296,0.03,0.0304,0.0255,0.0254,0.0254,0,0,-0.0207,-0.019,-0.0198,-0.0177,-0.0149,-0.0118,-0.0114,-0.0068,-0.0041,-0.0006,0.0035,0.0079,0.0132,0.0176,0.0203,0.0218,0.0254,0.0225,0.0217,0.0273,0.0277,0.0281,0.0324,0.0332,0.0227,0.0227,0.0227,0,-0.0226,-0.0229,-0.0195,-0.0195,-0.0181,-0.013,-0.0128,-0.0091,-0.0037,-0.001,-0.0004,0.0095,0.0132,0.0193,0.0197,0.0215,0.0248,0.0215,0.0271,0.0276,0.028,0.0324,0.0333,0.0225,0.0226,0.0226,0.0226,0,-0.0256,-0.0258,-0.026,-0.0242,-0.0217,-0.021,-0.0157,-0.0126,-0.0091,-0.0047,0.0015,0.0074,0.0135,0.0153,0.0178,0.0234,0.0246,0.0259,0.027,0.0282,0.0328,0.0338,0.0223,0.0224,0.0224,0.0225,0,0,-0.0299,-0.0287,-0.0287,-0.029,-0.0242,-0.0229,-0.019,-0.0137,-0.011,-0.005,-0.0005,0.0068,0.0108,0.0142,0.0187,0.0236,0.0293,0.0256,0.026,0.0292,0.041,0.0444,0.0459,0.0315,0.0316,0.0318,0.0426,0,-0.0334,-0.0358,-0.0327,-0.0334,-0.0338,-0.0275,-0.0241,-0.0183,-0.0126,-0.007,0.0013,0.0065,0.0103,0.0128,0.0188,0.0265,0.032,0.0262,0.04,0.0404,0.0428,0.0472,0.0499,0.0601,0.0437,0.0438,0.044,0,-0.0369,-0.0382,-0.0403,-0.0384,-0.0377,-0.0362,-0.0298,-0.0263,-0.0161,-0.0117,-0.0036,0.003,0.0121,0.0141,0.0293,0.0253,0.0329,0.0388,0.0394,0.0447,0.0458,0.0565,0.0626,0.0771,0.0456,0.0455,0.0454,0,-0.0422,-0.0429,-0.0451,-0.0446,-0.0413,-0.0398,-0.0368,-0.0277,-0.0249,-0.0146,-0.0118,0.0013,0.0065,0.0186,0.0317,0.0306,0.0478,0.0481,0.0587,0.059,0.0653,0.0658,0.0866,0.0591,0.0591,0.0591,0.059,0,-0.0469,-0.0486,-0.0483,-0.0498,-0.0512,-0.0457,-0.0442,-0.0388,-0.031,-0.0281,-0.0153,-0.0107,0.0076,0.0198,0.0318,0.0491,0.0487,0.0601,0.063,0.064,0.0642,0.0801,0.0848,0.0595,0.0594,0.0593,0.0592,0,-0.0519,-0.0518,-0.0552,-0.0544,-0.0543,-0.0552,-0.0517,-0.0509,-0.0419,-0.0378,-0.0352,-0.0191,-0.0023,0.0168,0.0371,0.0485,0.0737,0.0706,0.0701,0.0728,0.0956,0.0997,0.1218,0.1281,0.0847,0.0849,0.085,0,-0.0546,-0.0572,-0.0604,-0.0636,-0.0637,-0.0643,-0.065,-0.0577,-0.0564,-0.0437,-0.043,-0.0248,-0.0113,0.0216,0.0463,0.0717,0.0814,0.0875,0.0867,0.0994,0.1062,0.1088,0.1125,0.0935,0.0937,0.0938,0.0939,0,-0.0601,-0.0613,-0.0648,-0.0724,-0.0757,-0.0789,-0.0788,-0.0788,-0.0697,-0.0644,-0.0537,-0.0411,-0.0058,0.0266,0.0612,0.0752,0.0979,0.0914,0.1062,0.117,0.1198,0.1261,0.0824,0.0954,0.0952,0.0951,0.095,0.095,-0.0637,-0.0684,-0.0743,-0.0815,-0.0867,-0.0923,-0.0947,-0.0927,-0.0904,-0.0794,-0.0637,-0.041,0.0113,0.0617,0.0788,0.1166,0.1109,0.1265,0.131,0.1329,0.1386,0.0972,0.112,0.112,0.112,0.1119,0.1119,0,-0.0682,-0.0748,-0.0831,-0.0923,-0.1011,-0.1006,-0.1037,-0.1047,-0.1029,-0.0852,-0.0698,-0.0118,0.0375,0.0838,0.1401,0.1575,0.1588,0.1643,0.1698,0.172,0.1384,0.1384,0.1577,0.1576,0.1576,0.1576,0.1576,0.1576,-0.0709,-0.0806,-0.0865,-0.1035,-0.1099,-0.1188,-0.1207,-0.1195,-0.1079,-0.0805,-0.0474,-0.0167,0.0534,0.1479,0.1968,0.1977,0.2109,0.207,0.2139,0.1922,0.189,0.1859,0.1875,0.2167,0.2167,0.2457,0.246,0.2463]}],[{"header":{"parameterUnit":"m.s-1","parameterCategory":2,"la1":30.2991,"la2":30.254,"lo1":-89.0895,"lo2":-89.0444,"dy":0.0017,"dx":0.0017,"nx":28,"ny":28,"refTime":"2024-04-09T03:00:00:Z","depth":"2","parameterNumber":2,"parameterNumberName":"U-component_of_CURRENTS"},"data":[0,0,0,0,0,0,0,0,0,0,0,0,0,0,0,0,0,0,0,0,0,0,0,0,0,0,0,0,0,0,0,0,0,0,0,0,0,0,0,0,0,0,0,0,0,0,0,0,0,0,0,0,0,0,0,0,0,0,-0.1722,-0.1722,0,-0.1737,-0.1737,-0.1737,-0.1727,-0.1726,-0.1726,-0.1726,-0.1676,-0.1675,-0.1674,0,0,0,0,0,0,0,0,0,0,0,0,0,-0.1652,-0.1653,-0.1722,-0.1722,-0.1723,-0.1737,-0.1737,-0.1736,-0.1727,-0.1726,-0.1726,-0.1726,-0.1676,-0.1675,-0.1674,0,0,0,0,0,0,0,0,0,0,0,0,0,-0.1673,-0.1653,-0.1722,-0.1722,-0.1722,-0.1737,-0.1737,-0.1736,-0.1727,-0.1726,-0.1726,-0.1726,-0.1677,-0.1675,-0.1673,-0.1667,0,0,-0.1668,-0.1667,0,0,0,0,0,0,0,0,-0.1672,-0.1675,-0.1722,-0.1722,-0.1723,-0.1732,-0.1694,-0.1711,-0.1727,-0.1722,-0.1726,-0.1726,-0.1691,-0.1688,-0.1688,-0.1665,-0.1662,-0.1668,-0.1667,-0.1666,-0.1665,0,0,0,0,0,0,0,-0.167,-0.1674,-0.1724,-0.1722,-0.1723,-0.171,-0.1713,-0.1697,-0.1704,-0.1722,-0.1722,-0.1729,-0.1691,-0.169,-0.1686,-0.1662,-0.1668,-0.1666,-0.1665,-0.1664,-0.1631,-0.1631,0,0,0,0,0,0,-0.1677,-0.1673,-0.1724,-0.1725,-0.17,-0.1712,-0.1715,-0.1727,-0.1705,-0.1703,-0.1729,-0.1729,-0.1693,-0.1688,-0.1684,-0.1691,-0.1666,-0.1664,-0.1663,-0.1631,-0.1631,-0.1631,0,0,0,0,0,0,-0.1676,-0.1682,-0.1724,-0.1702,-0.1706,-0.1714,-0.1727,-0.1727,-0.173,-0.1712,-0.1708,-0.1733,-0.1692,-0.1687,-0.1675,-0.1688,-0.1663,-0.1662,-0.1631,-0.1631,-0.1631,-0.1694,0,0,0,0,0,0,-0.1674,-0.1681,-0.1688,-0.1702,-0.1708,-0.1736,-0.1728,-0.1728,-0.1736,-0.1736,-0.1714,-0.1709,-0.1692,-0.1678,-0.1673,-0.1686,-0.166,-0.163,-0.1631,-0.1631,-0.1692,-0.1697,-0.1701,0,0,0,0,0,-0.1671,-0.1684,-0.1688,-0.1694,-0.1718,-0.1736,-0.1738,-0.1739,-0.1737,-0.174,-0.1726,-0.171,-0.1676,-0.1676,-0.1671,-0.1683,-0.163,-0.1631,-0.1631,-0.169,-0.1696,-0.1701,0,0,0,0,0,0,-0.1654,-0.1685,-0.1689,-0.171,-0.1724,-0.1736,-0.1741,-0.1744,-0.1737,-0.1733,-0.1713,-0.1707,-0.17,-0.168,-0.1681,-0.1673,-0.165,-0.165,-0.1697,-0.1702,-0.1706,-0.1715,-0.1659,0,0,0,0,0,-0.1656,-0.1672,-0.1697,-0.1711,-0.1722,-0.1732,-0.1738,-0.1742,-0.1742,-0.1739,-0.1727,-0.1709,-0.1698,-0.1691,-0.1673,-0.167,-0.1676,-0.1673,-0.1678,-0.1682,-0.1684,-0.17,-0.1707,-0.1633,-0.1633,-0.1633,0,0,-0.1652,-0.1671,-0.1679,-0.1708,-0.1718,-0.1738,-0.1734,-0.1749,-0.1763,-0.1733,-0.174,-0.1723,-0.1699,-0.1697,-0.1692,-0.1683,-0.1711,-0.1682,-0.1686,-0.1686,-0.1702,-0.1709,-0.1716,-0.1633,-0.1633,-0.1633,0,0,-0.1655,-0.1672,-0.1688,-0.1706,-0.1729,-0.174,-0.1747,-0.1764,-0.1769,-0.1774,-0.1758,-0.1752,-0.1731,-0.1724,-0.1716,-0.1732,-0.1731,-0.1724,-0.1758,-0.1775,-0.1781,-0.1787,-0.1832,-0.1842,-0.1729,-0.173,-0.173,0,-0.1647,-0.1676,-0.1693,-0.1716,-0.1736,-0.1744,-0.1769,-0.1776,-0.1785,-0.1797,-0.178,-0.1768,-0.1746,-0.1756,-0.1759,-0.1744,-0.1762,-0.1744,-0.1783,-0.1789,-0.1794,-0.1838,-0.1847,-0.1733,-0.1732,-0.1732,-0.1732,0,-0.1665,-0.169,-0.1702,-0.1737,-0.1758,-0.1779,-0.1803,-0.1818,-0.1824,-0.1833,-0.1842,-0.1815,-0.181,-0.1804,-0.1785,-0.181,-0.1817,-0.1788,-0.1776,-0.1805,-0.185,-0.1859,-0.1737,-0.1736,-0.1735,-0.1734,0,0,-0.1642,-0.1704,-0.1706,-0.1735,-0.1775,-0.1797,-0.1829,-0.1865,-0.1893,-0.1887,-0.1921,-0.1894,-0.1883,-0.1872,-0.1851,-0.1862,-0.1918,-0.1844,-0.1843,-0.19,-0.1984,-0.1974,-0.1983,-0.19,-0.1901,-0.1902,-0.2013,0,-0.1649,-0.17,-0.173,-0.1777,-0.181,-0.1842,-0.1875,-0.1908,-0.1926,-0.1958,-0.1944,-0.1951,-0.1908,-0.1906,-0.1914,-0.1911,-0.1939,-0.1892,-0.1936,-0.1938,-0.1934,-0.1991,-0.1813,-0.1894,-0.2021,-0.2023,-0.2024,0,-0.1653,-0.1694,-0.1743,-0.1819,-0.1837,-0.1863,-0.1931,-0.1959,-0.2004,-0.202,-0.2029,-0.202,-0.2033,-0.1986,-0.2015,-0.1989,-0.1994,-0.1993,-0.1997,-0.1967,-0.1943,-0.1877,-0.1905,-0.2038,-0.2037,-0.2036,-0.2035,0,-0.1631,-0.1702,-0.1744,-0.1767,-0.1848,-0.1879,-0.1917,-0.1973,-0.2008,-0.2052,-0.2082,-0.2092,-0.2102,-0.2101,-0.2089,-0.206,-0.2134,-0.2092,-0.2096,-0.2097,-0.1942,-0.1927,-0.2123,-0.2123,-0.2123,-0.2123,-0.2122,0,-0.1628,-0.1661,-0.1737,-0.176,-0.1815,-0.1875,-0.1929,-0.197,-0.2036,-0.2086,-0.21,-0.2139,-0.2128,-0.2161,-0.214,-0.2158,-0.2176,-0.2123,-0.2125,-0.1962,-0.1948,-0.2053,-0.2044,-0.2127,-0.2126,-0.2125,-0.2124,0,-0.1586,-0.1638,-0.1688,-0.1775,-0.1802,-0.1834,-0.1924,-0.1967,-0.2033,-0.2103,-0.2119,-0.2189,-0.2236,-0.2241,-0.2262,-0.223,-0.2238,-0.2238,-0.2066,-0.2045,-0.2184,-0.2177,-0.2267,-0.2268,-0.2268,-0.2268,-0.2269,0,-0.1569,-0.1587,-0.1673,-0.1703,-0.1738,-0.1799,-0.1846,-0.1938,-0.1989,-0.213,-0.2163,-0.2248,-0.2292,-0.2343,-0.2298,-0.2297,-0.2293,-0.2127,-0.2026,-0.2207,-0.22,-0.2191,-0.2183,-0.1859,-0.1856,-0.1854,-0.1852,0,-0.1523,-0.1546,-0.1586,-0.1646,-0.1697,-0.1758,-0.1835,-0.1881,-0.2003,-0.2077,-0.2191,-0.2246,-0.2319,-0.2237,-0.2236,-0.2191,-0.2109,-0.208,-0.2309,-0.1852,-0.1831,-0.1821,-0.1825,-0.183,-0.1832,-0.1834,-0.1835,-0.1836,-0.1472,-0.148,-0.1528,-0.1575,-0.1637,-0.1698,-0.1709,-0.1818,-0.1894,-0.1982,-0.2124,-0.2144,-0.2166,-0.2078,-0.2014,-0.1937,-0.2064,-0.1933,-0.1936,-0.1943,-0.1877,-0.1858,-0.1852,-0.1854,-0.1856,-0.1858,-0.186,0,-0.1406,-0.1423,-0.1461,-0.1512,-0.1534,-0.16,-0.1681,-0.1673,-0.1728,-0.1844,-0.1923,-0.1802,-0.1792,-0.1793,-0.1663,-0.1664,-0.1597,-0.1574,-0.1464,-0.1489,-0.1511,-0.1417,-0.1273,-0.1271,-0.1269,-0.1268,0,0,-0.1373,-0.1372,-0.1389,-0.1388,-0.1419,-0.1404,-0.142,-0.1436,-0.1476,-0.1488,-0.15,-0.1692,-0.1748,-0.1506,-0.1467,-0.1342,-0.1388,-0.1279,-0.1751,-0.1645,-0.1663,-0.1725,-0.1612,0,0,0,0,0]},{"header":{"parameterUnit":"m.s-1","parameterCategory":2,"la1":30.2991,"la2":30.254,"lo1":-89.0895,"lo2":-89.0444,"dy":0.0017,"dx":0.0017,"nx":28,"ny":28,"refTime":"2024-04-09T03:00:00:Z","depth":"2","parameterNumber":3,"parameterNumberName":"V-component_of_CURRENTS"},"data":[0,0,0,0,0,0,0,0,0,0,0,0,0,0,0,0,0,0,0,0,0,0,0,0,0,0,0,0,0,0,0,0,0,0,0,0,0,0,0,0,0,0,0,0,0,0,0,0,0,0,0,0,0,0,0,0,0,0,-0.0133,-0.0133,0,-0.0056,-0.0055,-0.0054,-0.0003,-0.0003,-0.0003,-0.0003,0.0086,0.0088,0.0091,0,0,0,0,0,0,0,0,0,0,0,0,0,-0.0179,-0.0178,-0.0133,-0.0133,-0.0132,-0.0056,-0.0055,-0.0053,-0.0003,-0.0003,-0.0003,-0.0002,0.0085,0.0088,0.0091,0,0,0,0,0,0,0,0,0,0,0,0,0,-0.0133,-0.0178,-0.0133,-0.01,-0.0096,-0.0057,-0.0055,-0.0053,-0.0003,-0.0003,-0.0003,-0.0002,0.0084,0.0088,0.0091,0.0111,0,0,0.0102,0.0103,0,0,0,0,0,0,0,0,-0.0136,-0.0131,-0.0105,-0.0102,-0.0098,-0.0042,-0.0039,0.0001,-0.0003,-0.0035,-0.0003,-0.0002,0.0042,0.0049,0.0068,0.0116,0.0119,0.0102,0.0104,0.0106,0.0107,0,0,0,0,0,0,0,-0.0139,-0.0134,-0.0099,-0.0105,-0.01,-0.0069,-0.0063,-0.003,0.0005,-0.0032,-0.0029,-0.0026,0.0045,0.0065,0.007,0.0121,0.0102,0.0105,0.0107,0.0109,0.0209,0.0209,0,0,0,0,0,0,-0.0158,-0.0137,-0.0102,-0.0097,-0.0121,-0.0069,-0.0061,-0.0057,0.0005,0.0013,-0.0026,-0.0024,0.0059,0.0066,0.0074,0.011,0.0106,0.0109,0.0111,0.0208,0.0209,0.021,0,0,0,0,0,0,-0.0159,-0.0156,-0.0105,-0.0118,-0.011,-0.0069,-0.0064,-0.0056,-0.0034,0.0009,0.0018,-0.0013,0.0059,0.0069,0.0108,0.0113,0.0111,0.0114,0.0208,0.0208,0.0209,0.0176,0,0,0,0,0,0,-0.0161,-0.0157,-0.016,-0.0119,-0.011,-0.0084,-0.0064,-0.0054,-0.0034,-0.003,0.0023,0.0031,0.006,0.0103,0.0111,0.0118,0.0116,0.0207,0.0208,0.0209,0.0176,0.0176,0.0175,0,0,0,0,0,-0.0163,-0.017,-0.0161,-0.0156,-0.0116,-0.0085,-0.0076,-0.0044,-0.0034,-0.0024,0.0015,0.003,0.0116,0.0106,0.0116,0.0123,0.0206,0.0208,0.0209,0.0177,0.0176,0.0175,0,0,0,0,0,0,-0.0191,-0.0164,-0.0153,-0.0152,-0.0123,-0.0077,-0.007,-0.0046,-0.0007,-0.0006,0.0039,0.005,0.0086,0.0111,0.0099,0.0157,0.0163,0.0166,0.0135,0.0134,0.0134,0.0123,0.0119,0,0,0,0,0,-0.0201,-0.02,-0.0164,-0.0164,-0.0152,-0.0111,-0.0095,-0.0073,-0.0036,-0.0018,0.002,0.0061,0.0099,0.0121,0.0156,0.0188,0.0217,0.02,0.0199,0.0198,0.0197,0.0249,0.0253,0.0214,0.0214,0.0214,0,0,-0.0214,-0.0199,-0.0199,-0.017,-0.0146,-0.0131,-0.01,-0.0081,-0.0062,-0.0015,0.002,0.0058,0.0107,0.0144,0.0162,0.0166,0.0225,0.02,0.0199,0.0198,0.0251,0.0255,0.0258,0.0215,0.0215,0.0214,0,0,-0.024,-0.0224,-0.0231,-0.0208,-0.018,-0.015,-0.0146,-0.01,-0.0074,-0.0037,0.0003,0.0047,0.01,0.0143,0.017,0.0188,0.0217,0.0195,0.0185,0.0236,0.024,0.0243,0.028,0.0287,0.0197,0.0197,0.0197,0,-0.0258,-0.0261,-0.0227,-0.0224,-0.0211,-0.0162,-0.0159,-0.0122,-0.0068,-0.0043,-0.0034,0.0063,0.0102,0.016,0.0166,0.0186,0.0213,0.0182,0.0234,0.0238,0.0242,0.028,0.0288,0.0195,0.0195,0.0196,0.0196,0,-0.0284,-0.0285,-0.0286,-0.0267,-0.0243,-0.0235,-0.0183,-0.0154,-0.0119,-0.0077,-0.0017,0.0044,0.0103,0.0123,0.0149,0.0201,0.021,0.0224,0.0232,0.0244,0.0283,0.0292,0.0193,0.0194,0.0194,0.0194,0,0,-0.0326,-0.0311,-0.0311,-0.0316,-0.0267,-0.0254,-0.0217,-0.0167,-0.0144,-0.0081,-0.0042,0.0035,0.0074,0.0107,0.0153,0.0199,0.0251,0.0218,0.0222,0.0247,0.0354,0.038,0.0393,0.0271,0.0273,0.0274,0.0367,0,-0.0359,-0.0379,-0.0348,-0.0356,-0.036,-0.0301,-0.0269,-0.0214,-0.0159,-0.0107,-0.0025,0.0026,0.0068,0.0092,0.0149,0.0225,0.0274,0.0223,0.0345,0.0349,0.0365,0.0404,0.0356,0.0437,0.0376,0.0378,0.0379,0,-0.039,-0.0403,-0.0423,-0.0409,-0.0403,-0.0388,-0.0333,-0.03,-0.0204,-0.016,-0.0083,-0.0016,0.0073,0.0096,0.0239,0.0203,0.0274,0.0332,0.0337,0.038,0.0393,0.0418,0.0456,0.0394,0.0393,0.0392,0.0391,0,-0.0444,-0.045,-0.0473,-0.0469,-0.0439,-0.0428,-0.0401,-0.0317,-0.0291,-0.0193,-0.0165,-0.004,0.0012,0.0125,0.0254,0.0247,0.0404,0.041,0.0504,0.0506,0.0499,0.0498,0.051,0.051,0.0509,0.0509,0.0509,0,-0.0489,-0.0507,-0.0506,-0.052,-0.0541,-0.0488,-0.048,-0.043,-0.0356,-0.0328,-0.0203,-0.0157,0.0019,0.0135,0.025,0.041,0.0408,0.0513,0.054,0.0486,0.0483,0.0472,0.0466,0.0513,0.0512,0.0511,0.0511,0,-0.0538,-0.0537,-0.0573,-0.0569,-0.057,-0.0583,-0.0554,-0.0548,-0.0462,-0.0423,-0.0396,-0.0239,-0.008,0.01,0.0291,0.0399,0.0548,0.0602,0.0524,0.054,0.0615,0.0607,0.0721,0.0723,0.0724,0.0726,0.0727,0,-0.0564,-0.0589,-0.0626,-0.0659,-0.0661,-0.0672,-0.0682,-0.0613,-0.0601,-0.0478,-0.0469,-0.0297,-0.0171,0.0134,0.0359,0.0589,0.059,0.0669,0.0656,0.0626,0.0641,0.063,0.062,0.063,0.063,0.063,0.063,0,-0.0618,-0.0631,-0.0667,-0.0745,-0.078,-0.0813,-0.0814,-0.0814,-0.0727,-0.0676,-0.0574,-0.0457,-0.0136,0.0124,0.0439,0.0558,0.0633,0.0681,0.0685,0.0583,0.0549,0.056,0.0551,0.0632,0.0632,0.0632,0.0632,0.0632,-0.0655,-0.0703,-0.0762,-0.0836,-0.0888,-0.0941,-0.0965,-0.0945,-0.0923,-0.082,-0.0677,-0.0482,-0.0181,0.0255,0.0481,0.0685,0.0687,0.0728,0.0724,0.0721,0.0693,0.0663,0.0762,0.0763,0.0763,0.0764,0.0764,0,-0.0701,-0.0766,-0.0849,-0.094,-0.1024,-0.1022,-0.105,-0.1055,-0.1037,-0.0885,-0.0749,-0.044,-0.0103,0.0201,0.0534,0.0744,0.0716,0.076,0.0689,0.0686,0.0683,0.0651,0.0711,0.0712,0.0712,0.0713,0,0,-0.073,-0.0825,-0.0882,-0.1044,-0.1108,-0.1191,-0.1208,-0.119,-0.1089,-0.0963,-0.0789,-0.0503,-0.0106,0.0122,0.0391,0.0561,0.056,0.0562,0.0581,0.0461,0.0456,0.064,0.0585,0,0,0,0,0]}],[{"header":{"parameterUnit":"m.s-1","parameterCategory":2,"la1":30.2991,"la2":30.254,"lo1":-89.0895,"lo2":-89.0444,"dy":0.0017,"dx":0.0017,"nx":28,"ny":28,"refTime":"2024-04-09T03:00:00:Z","depth":"4","parameterNumber":2,"parameterNumberName":"U-component_of_CURRENTS"},"data":[0,0,0,0,0,0,0,0,0,0,0,0,0,0,0,0,0,0,0,0,0,0,0,0,0,0,0,0,0,0,0,0,0,0,0,0,0,0,0,0,0,0,0,0,0,0,0,0,0,0,0,0,0,0,0,0,0,0,-0.1191,-0.1192,0,-0.1232,-0.1232,-0.1232,-0.1259,-0.1259,-0.1259,-0.126,-0.1263,-0.1262,-0.1262,0,0,0,0,0,0,0,0,0,0,0,0,0,-0.1119,-0.112,-0.1191,-0.1192,-0.1193,-0.1231,-0.1232,-0.1232,-0.1259,-0.1259,-0.1259,-0.126,-0.1263,-0.1262,-0.1262,0,0,0,0,0,0,0,0,0,0,0,0,0,-0.1151,-0.112,-0.1191,-0.1212,-0.1215,-0.1231,-0.1232,-0.1232,-0.1258,-0.1259,-0.126,-0.126,-0.1263,-0.1263,-0.1262,-0.1247,0,0,-0.1261,-0.1261,0,0,0,0,0,0,0,0,-0.115,-0.1154,-0.1208,-0.1211,-0.1214,-0.1243,-0.1208,-0.1236,-0.1258,-0.1239,-0.126,-0.126,-0.1254,-0.1254,-0.1257,-0.1248,-0.1248,-0.1261,-0.126,-0.126,-0.126,0,0,0,0,0,0,0,-0.1147,-0.1152,-0.1205,-0.1209,-0.1212,-0.1214,-0.1219,-0.1213,-0.124,-0.1241,-0.1244,-0.1252,-0.1255,-0.1258,-0.1258,-0.1248,-0.1261,-0.126,-0.126,-0.126,-0.1269,-0.127,0,0,0,0,0,0,-0.1148,-0.115,-0.1203,-0.1206,-0.1185,-0.1215,-0.1221,-0.1231,-0.1241,-0.1244,-0.1251,-0.1253,-0.1258,-0.1258,-0.1258,-0.1298,-0.126,-0.126,-0.126,-0.1269,-0.1269,-0.127,0,0,0,0,0,0,-0.1146,-0.1152,-0.1202,-0.1181,-0.1188,-0.1216,-0.1227,-0.1231,-0.1258,-0.125,-0.1252,-0.1276,-0.1259,-0.1258,-0.1274,-0.1296,-0.126,-0.1259,-0.1268,-0.1269,-0.127,-0.1342,0,0,0,0,0,0,-0.1144,-0.1151,-0.1166,-0.1181,-0.1189,-0.1228,-0.1227,-0.1232,-0.1262,-0.1265,-0.1271,-0.1271,-0.1259,-0.1274,-0.1273,-0.1295,-0.1259,-0.1268,-0.1269,-0.1269,-0.1339,-0.1345,-0.135,0,0,0,0,0,-0.1141,-0.1158,-0.1167,-0.1174,-0.1206,-0.1229,-0.1234,-0.1253,-0.1263,-0.1278,-0.1284,-0.1272,-0.1279,-0.1275,-0.1273,-0.1295,-0.1267,-0.1268,-0.1269,-0.1336,-0.1344,-0.135,0,0,0,0,0,0,-0.1136,-0.1163,-0.1173,-0.1199,-0.122,-0.1235,-0.1255,-0.1266,-0.1284,-0.1291,-0.1281,-0.1281,-0.1301,-0.1285,-0.128,-0.1298,-0.127,-0.1271,-0.1321,-0.1328,-0.1333,-0.1338,-0.1259,0,0,0,0,0,-0.1141,-0.1162,-0.1186,-0.1208,-0.1222,-0.1242,-0.1258,-0.1272,-0.1286,-0.1296,-0.1302,-0.1301,-0.13,-0.1306,-0.13,-0.1313,-0.131,-0.1323,-0.1329,-0.1334,-0.1336,-0.1348,-0.1356,-0.1274,-0.1274,-0.1274,0,0,-0.1146,-0.1164,-0.1177,-0.1209,-0.1228,-0.1254,-0.1254,-0.1285,-0.131,-0.1291,-0.1329,-0.1324,-0.1307,-0.1323,-0.133,-0.1317,-0.136,-0.1336,-0.134,-0.1339,-0.135,-0.1358,-0.1365,-0.1275,-0.1274,-0.1274,0,0,-0.116,-0.1183,-0.1206,-0.1228,-0.1263,-0.1276,-0.1291,-0.132,-0.134,-0.1367,-0.136,-0.1371,-0.1374,-0.137,-0.1365,-0.1397,-0.1389,-0.1395,-0.1433,-0.1445,-0.1453,-0.1459,-0.1489,-0.1498,-0.14,-0.14,-0.14,0,-0.1166,-0.1197,-0.1216,-0.1243,-0.1269,-0.129,-0.1321,-0.1341,-0.1372,-0.1391,-0.1389,-0.1405,-0.1395,-0.1411,-0.1422,-0.1412,-0.1423,-0.1412,-0.1455,-0.146,-0.1466,-0.1495,-0.1503,-0.1403,-0.1403,-0.1403,-0.1402,0,-0.1191,-0.1225,-0.1243,-0.1285,-0.1312,-0.1344,-0.1375,-0.1407,-0.1431,-0.1448,-0.148,-0.1469,-0.1478,-0.1477,-0.1459,-0.149,-0.1489,-0.1462,-0.1442,-0.1479,-0.1507,-0.1515,-0.1409,-0.1407,-0.1406,-0.1405,0,0,-0.1175,-0.1247,-0.1255,-0.1286,-0.134,-0.1363,-0.1412,-0.1457,-0.1495,-0.1517,-0.1562,-0.1556,-0.1557,-0.155,-0.1535,-0.1544,-0.1596,-0.1524,-0.1523,-0.1564,-0.1646,-0.1556,-0.1555,-0.1581,-0.1582,-0.1583,-0.166,0,-0.119,-0.1248,-0.1283,-0.1342,-0.1376,-0.1419,-0.1463,-0.1507,-0.1542,-0.159,-0.159,-0.1616,-0.1583,-0.1593,-0.16,-0.1594,-0.1614,-0.1578,-0.1595,-0.1596,-0.1518,-0.1559,-0.1586,-0.1666,-0.1667,-0.1668,-0.1669,0,-0.1197,-0.1239,-0.13,-0.1379,-0.14,-0.1439,-0.1518,-0.1556,-0.162,-0.1651,-0.168,-0.1685,-0.1707,-0.1668,-0.169,-0.1672,-0.1667,-0.1659,-0.1662,-0.1553,-0.1518,-0.1613,-0.1682,-0.1681,-0.168,-0.1679,-0.1678,0,-0.1165,-0.1248,-0.1299,-0.1326,-0.1415,-0.1457,-0.1503,-0.1575,-0.1618,-0.1687,-0.1731,-0.1754,-0.1775,-0.1768,-0.1754,-0.1731,-0.178,-0.1743,-0.1664,-0.1659,-0.1687,-0.1679,-0.1762,-0.1762,-0.1762,-0.1762,-0.1762,0,-0.1154,-0.1198,-0.1292,-0.1319,-0.1381,-0.1448,-0.1517,-0.1569,-0.1655,-0.171,-0.1752,-0.1791,-0.18,-0.1825,-0.1797,-0.1757,-0.1816,-0.168,-0.1669,-0.1718,-0.1712,-0.1693,-0.1684,-0.1765,-0.1764,-0.1764,-0.1763,0,-0.1102,-0.117,-0.1226,-0.1329,-0.1365,-0.1401,-0.1515,-0.1564,-0.1654,-0.1731,-0.1757,-0.1839,-0.1862,-0.187,-0.1874,-0.1807,-0.1779,-0.1751,-0.1835,-0.1826,-0.1646,-0.164,-0.1672,-0.1669,-0.1667,-0.1665,-0.1664,0,-0.1079,-0.1105,-0.121,-0.1245,-0.1293,-0.1368,-0.1424,-0.1537,-0.1592,-0.1742,-0.1771,-0.1847,-0.1881,-0.1827,-0.1835,-0.1798,-0.1761,-0.175,-0.1661,-0.1649,-0.1636,-0.1633,-0.163,-0.166,-0.1659,-0.1659,-0.1658,0,-0.1022,-0.1064,-0.1105,-0.1174,-0.1238,-0.131,-0.1401,-0.1441,-0.1576,-0.1682,-0.1739,-0.1752,-0.1789,-0.1769,-0.1759,-0.1721,-0.1753,-0.1726,-0.1729,-0.1645,-0.1635,-0.1623,-0.1623,-0.1651,-0.1652,-0.1652,-0.1653,0,-0.0969,-0.0973,-0.1031,-0.1079,-0.1163,-0.1227,-0.1292,-0.1372,-0.1442,-0.1616,-0.1632,-0.1711,-0.1787,-0.1733,-0.1721,-0.1681,-0.1637,-0.1566,-0.1576,-0.1585,-0.1512,-0.1484,-0.1452,0,0,0,0,0,-0.0909,-0.0904,-0.094,-0.0991,-0.1075,-0.1125,-0.1267,-0.1341,-0.1486,-0.149,-0.156,-0.1585,-0.1584,-0.1618,-0.155,-0.1663,-0.1633,-0.1578,-0.1555,-0.1608,-0.1617,-0.1534,0,0,0,0,0,0,-0.0868,-0.089,-0.0897,-0.0909,-0.0932,-0.1018,-0.1107,-0.1214,-0.1228,-0.1374,-0.1373,-0.1476,-0.1482,-0.1581,-0.1506,-0.1516,-0.147,-0.1626,-0.1622,-0.1603,-0.1611,-0.1618,-0.1536,0,0,0,0,0]},{"header":{"parameterUnit":"m.s-1","parameterCategory":2,"la1":30.2991,"la2":30.254,"lo1":-89.0895,"lo2":-89.0444,"dy":0.0017,"dx":0.0017,"nx":28,"ny":28,"refTime":"2024-04-09T03:00:00:Z","depth":"4","parameterNumber":3,"parameterNumberName":"V-component_of_CURRENTS"},"data":[0,0,0,0,0,0,0,0,0,0,0,0,0,0,0,0,0,0,0,0,0,0,0,0,0,0,0,0,0,0,0,0,0,0,0,0,0,0,0,0,0,0,0,0,0,0,0,0,0,0,0,0,0,0,0,0,0,0,-0.0106,-0.0105,0,-0.0045,-0.0044,-0.0043,-0.0004,-0.0004,-0.0004,-0.0004,0.0071,0.0073,0.0075,0,0,0,0,0,0,0,0,0,0,0,0,0,-0.014,-0.0139,-0.0106,-0.0105,-0.0105,-0.0045,-0.0044,-0.0043,-0.0004,-0.0004,-0.0004,-0.0004,0.007,0.0073,0.0075,0,0,0,0,0,0,0,0,0,0,0,0,0,-0.0104,-0.0139,-0.0106,-0.0081,-0.0078,-0.0045,-0.0044,-0.0042,-0.0004,-0.0004,-0.0004,-0.0005,0.0069,0.0072,0.0075,0.0095,0,0,0.0085,0.0086,0,0,0,0,0,0,0,0,-0.0106,-0.0102,-0.0085,-0.0082,-0.0079,-0.0035,-0.0028,0.0003,-0.0004,-0.0029,-0.0004,-0.0005,0.0035,0.0041,0.0056,0.0099,0.0102,0.0085,0.0087,0.0088,0.0089,0,0,0,0,0,0,0,-0.0109,-0.0105,-0.0079,-0.0084,-0.0081,-0.0055,-0.005,-0.0022,0.0005,-0.0027,-0.0025,-0.0022,0.0037,0.0053,0.0058,0.0103,0.0085,0.0088,0.009,0.0091,0.0188,0.0189,0,0,0,0,0,0,-0.0124,-0.0107,-0.0081,-0.0077,-0.0096,-0.0055,-0.0049,-0.0047,0.0004,0.0011,-0.0023,-0.0021,0.0048,0.0055,0.0061,0.0097,0.0088,0.0091,0.0093,0.0187,0.0188,0.0189,0,0,0,0,0,0,-0.0125,-0.0122,-0.0083,-0.0093,-0.0087,-0.0055,-0.0052,-0.0046,-0.0029,0.0007,0.0015,-0.0013,0.0048,0.0057,0.0093,0.01,0.0092,0.0095,0.0186,0.0188,0.0189,0.0162,0,0,0,0,0,0,-0.0126,-0.0123,-0.0127,-0.0094,-0.0087,-0.0066,-0.0052,-0.0044,-0.0029,-0.0026,0.0018,0.0025,0.0049,0.0089,0.0096,0.0104,0.0098,0.0185,0.0187,0.0188,0.0162,0.0162,0.0163,0,0,0,0,0,-0.0128,-0.0133,-0.0128,-0.0125,-0.0093,-0.0067,-0.006,-0.0036,-0.0029,-0.0021,0.0013,0.0023,0.0103,0.0092,0.0101,0.0109,0.0185,0.0187,0.0188,0.0162,0.0162,0.0163,0,0,0,0,0,0,-0.0149,-0.0129,-0.0122,-0.0121,-0.0098,-0.0061,-0.0056,-0.0038,-0.0005,-0.0004,0.0034,0.0044,0.0078,0.01,0.0086,0.0143,0.0145,0.0149,0.0123,0.0123,0.0123,0.0107,0.01,0,0,0,0,0,-0.0158,-0.0158,-0.013,-0.0131,-0.0121,-0.0089,-0.0076,-0.0059,-0.0028,-0.0013,0.002,0.0056,0.0092,0.0111,0.0144,0.0174,0.0192,0.0187,0.0187,0.0187,0.0181,0.0219,0.0222,0.0195,0.0195,0.0194,0,0,-0.0168,-0.0158,-0.0158,-0.0136,-0.0117,-0.0103,-0.008,-0.0065,-0.005,-0.001,0.0021,0.0057,0.0101,0.0136,0.0153,0.0155,0.0204,0.0189,0.0188,0.0182,0.0221,0.0224,0.0226,0.0196,0.0195,0.0195,0,0,-0.0188,-0.0177,-0.0183,-0.0164,-0.0142,-0.0119,-0.0116,-0.0078,-0.0057,-0.0024,0.0011,0.0052,0.0102,0.014,0.0164,0.0186,0.0203,0.0195,0.0183,0.0221,0.0223,0.0225,0.0247,0.0252,0.0196,0.0196,0.0196,0,-0.0202,-0.0205,-0.0179,-0.0175,-0.0167,-0.0128,-0.0127,-0.0095,-0.0049,-0.0032,-0.002,0.0067,0.0105,0.0154,0.0164,0.0185,0.0201,0.0176,0.022,0.0222,0.0225,0.0247,0.0252,0.0195,0.0195,0.0195,0.0195,0,-0.0218,-0.0221,-0.0222,-0.0206,-0.0188,-0.0183,-0.0141,-0.0119,-0.0092,-0.0057,-0.0006,0.0054,0.0103,0.0126,0.0153,0.0194,0.0197,0.0212,0.0213,0.0226,0.0249,0.0254,0.0193,0.0194,0.0194,0.0194,0,0,-0.025,-0.024,-0.024,-0.0248,-0.0208,-0.0202,-0.0172,-0.0137,-0.0124,-0.0065,-0.0038,0.0039,0.0072,0.0102,0.0147,0.0184,0.0222,0.0202,0.0204,0.0213,0.0292,0.0277,0.0282,0.0241,0.0242,0.0243,0.0299,0,-0.0275,-0.0292,-0.0269,-0.0279,-0.0285,-0.0243,-0.022,-0.0181,-0.0138,-0.0098,-0.0025,0.002,0.0064,0.0086,0.0134,0.0202,0.0236,0.0205,0.0288,0.029,0.0267,0.0288,0.0246,0.0303,0.0304,0.0305,0.0306,0,-0.0294,-0.0309,-0.0329,-0.0332,-0.0329,-0.0323,-0.0295,-0.027,-0.0195,-0.0161,-0.0096,-0.0035,0.0044,0.0072,0.0189,0.0165,0.0222,0.0272,0.0276,0.0273,0.0286,0.0292,0.0317,0.0316,0.0315,0.0314,0.0314,0,-0.0337,-0.035,-0.0377,-0.0375,-0.0362,-0.0364,-0.0352,-0.0292,-0.0275,-0.0199,-0.0175,-0.0071,-0.0022,0.007,0.0187,0.0186,0.0306,0.0319,0.0358,0.0357,0.0364,0.0361,0.0391,0.0391,0.0391,0.039,0.039,0,-0.0367,-0.0391,-0.0406,-0.042,-0.0455,-0.042,-0.043,-0.0397,-0.0343,-0.0323,-0.0215,-0.0173,-0.0021,0.0074,0.0173,0.0284,0.0299,0.0356,0.0374,0.0352,0.0347,0.0368,0.0364,0.0392,0.0392,0.0392,0.0391,0,-0.0399,-0.0407,-0.0449,-0.0466,-0.0477,-0.05,-0.0497,-0.0499,-0.0436,-0.0406,-0.0384,-0.0247,-0.0121,0.0027,0.0183,0.0257,0.0368,0.0401,0.0357,0.0372,0.0395,0.039,0.0445,0.0445,0.0445,0.0445,0.0445,0,-0.0413,-0.0438,-0.0495,-0.0534,-0.0547,-0.0576,-0.0596,-0.0554,-0.0546,-0.045,-0.0438,-0.0305,-0.0204,0.0004,0.0161,0.0345,0.037,0.0419,0.0417,0.039,0.0402,0.0397,0.0392,0.0445,0.0445,0.0445,0.0445,0,-0.0446,-0.047,-0.0509,-0.0594,-0.064,-0.0685,-0.0701,-0.0697,-0.0636,-0.0586,-0.0481,-0.0341,-0.0197,-0.0012,0.0135,0.0268,0.0387,0.042,0.0421,0.0419,0.039,0.0402,0.0397,0.0445,0.0445,0.0445,0.0445,0,-0.0471,-0.0514,-0.0575,-0.0646,-0.0719,-0.0768,-0.0767,-0.0743,-0.0719,-0.0597,-0.0567,-0.038,-0.0262,-0.0052,0.0085,0.0217,0.0248,0.028,0.0289,0.029,0.0235,0.0175,0.0179,0,0,0,0,0,-0.0489,-0.0545,-0.0623,-0.0706,-0.0781,-0.0817,-0.0829,-0.0808,-0.0744,-0.0687,-0.0619,-0.0478,-0.0241,-0.0125,0.0001,0.0074,0.026,0.0225,0.0298,0.0445,0.0445,0.0406,0,0,0,0,0,0,-0.0507,-0.0581,-0.0628,-0.0743,-0.0805,-0.0879,-0.0887,-0.0843,-0.079,-0.0703,-0.0578,-0.0473,-0.0245,-0.0327,-0.0008,0.0038,0.0097,0.035,0.0352,0.0445,0.0445,0.0445,0.0404,0,0,0,0,0]}]]